Temperature
24 24 23 22 22 22 24 26 29 29 29 29 28 28 27 26 25 23 23 23 23 22 22 21 22 22 22 21 21 20 20 20 20 20 20 20 20 20 20 20 20 20 20 20 20 20 20 20 20
25 24 24 23 23 22 24 26 28 30 30 29 28 28 27 25 24 23 22 23 23 23 22 22 22 22 22 21 21 20 20 20 20 20 20 20 20 20 20 20 20 20 20 20 20 20 20 20 20
25 24 24 22 23 23 24 27 29 31 31 30 28 27 26 25 24 24 23 23 23 23 23 22 22 22 21 21 21 20 20 20 20 20 20 20 20 20 20 20 20 20 20 20 20 20 20 20 20
25 24 23 22 24 25 26 27 29 31 30 29 27 26 26 25 25 24 24 23 23 23 23 22 22 21 21 21 21 20 20 20 20 20 20 20 20 20 20 20 20 20 20 20 20 20 20 20 20
25 24 22 22 25 27 28 28 30 30 30 28 26 25 24 25 26 24 24 23 23 23 23 22 22 21 21 21 21 20 20 20 20 20 20 20 20 20 20 20 20 20 20 20 20 20 20 20 20
25 23 22 23 27 29 29 29 30 30 29 27 26 24 23 24 25 24 23 23 23 23 23 22 22 21 21 21 21 20 20 20 20 20 20 20 20 20 20 20 20 20 20 20 20 20 20 20 20
25 22 24 25 27 29 30 31 30 30 30 29 26 24 23 23 24 23 23 23 23 22 23 23 22 22 21 21 21 21 20 20 20 20 20 20 20 20 20 20 20 20 20 20 19 19 19 19 19
27 22 24 25 28 29 31 32 32 31 30 29 28 24 24 23 23 23 22 23 22 22 22 23 22 22 22 21 21 21 21 21 21 21 20 20 20 20 20 19 19 19 19 19 19 19 19 19 19
27 22 23 26 28 29 31 31 32 31 31 30 28 28 27 24 23 22 22 22 22 21 21 22 22 22 22 21 21 21 21 21 21 21 20 20 20 20 20 19 19 19 19 19 19 19 19 19 19
26 22 25 27 29 29 30 31 31 30 28 27 27 27 25 24 23 22 22 22 21 21 21 21 22 22 22 21 21 21 21 21 21 20 20 20 20 19 19 19 19 19 18 18 18 18 18 18 19
26 25 26 28 30 31 31 31 31 29 26 26 26 25 25 24 24 23 22 22 22 22 21 21 21 21 22 21 21 21 21 20 20 20 20 20 19 19 19 19 19 19 18 18 18 18 18 18 18
27 26 28 29 31 31 31 31 31 29 28 28 28 27 25 24 24 24 23 22 22 22 21 21 21 21 21 21 21 20 20 19 20 20 20 20 19 19 19 19 19 18 18 18 18 18 18 18 18
26 26 29 30 30 30 31 31 30 30 29 28 27 26 25 25 24 24 24 23 22 22 21 21 20 20 20 20 20 20 19 19 19 19 19 19 19 19 19 18 18 18 18 18 18 18 18 18 18
27 28 28 30 30 30 29 29 29 29 27 25 25 25 25 25 24 24 23 23 23 22 22 21 21 20 20 20 20 19 19 19 19 19 19 19 19 19 19 18 18 18 18 18 18 18 18 18 18
27 26 26 27 28 29 29 27 28 28 26 24 24 24 24 24 24 24 23 23 23 22 22 21 21 20 20 20 19 19 19 18 18 18 18 18 18 18 18 18 18 19 18 18 18 18 18 18 18
25 25 24 25 26 28 27 26 26 26 25 23 23 23 23 23 23 23 23 23 22 22 21 21 20 20 19 19 19 19 18 18 18 18 18 18 18 18 18 18 18 19 18 18 18 18 18 18 18
23 23 24 25 27 27 26 26 26 26 25 24 23 23 23 23 23 23 22 22 21 21 21 20 20 19 19 18 18 18 18 18 18 18 18 18 18 18 18 18 18 18 18 18 18 18 18 18 18
23 23 25 25 26 26 26 25 26 26 26 24 23 23 23 22 22 22 22 21 21 20 20 20 20 19 19 19 19 18 18 18 18 18 18 19 19 19 18 18 18 18 18 18 18 18 18 18 18
25 25 25 26 26 26 25 26 26 26 26 24 22 22 22 22 22 22 22 21 20 20 20 20 20 19 19 19 19 18 18 18 18 18 19 19 19 19 18 18 18 18 18 18 18 18 18 18 18
26 25 25 25 26 26 25 25 25 25 25 24 22 21 21 21 22 22 21 21 21 20 20 20 20 20 19 19 19 18 18 18 18 18 18 18 18 18 18 18 18 18 17 17 18 18 18 18 18
25 25 24 24 24 24 24 22 22 22 23 23 21 21 22 22 22 22 21 21 21 21 21 21 20 20 20 19 19 18 18 17 17 17 17 18 17 17 17 17 17 17 17 17 17 17 17 17 17
24 25 25 24 22 21 23 20 20 21 21 21 21 21 22 22 22 22 22 22 22 22 21 21 21 20 20 19 18 18 17 17 16 16 16 16 17 17 17 16 16 16 16 16 16 16 16 16 16
25 25 24 24 22 21 21 20 20 20 20 20 20 21 22 22 22 22 23 23 22 22 22 21 21 20 20 19 18 17 17 16 16 16 16 16 16 16 16 16 16 16 16 16 16 16 16 16 16
26 24 22 20 18 19 21 20 19 19 20 20 20 21 22 23 23 23 23 23 22 22 21 21 20 20 19 18 17 17 16 16 15 15 15 16 16 16 16 16 16 16 15 15 16 15 15 15 15
24 20 18 19 18 19 20 20 19 19 20 20 21 22 23 23 23 23 23 23 22 22 21 20 20 19 19 18 17 16 16 15 15 15 15 15 15 15 15 15 15 15 15 15 15 15 15 15 15
25 20 18 19 18 18 19 20 19 21 22 23 23 23 23 23 24 23 23 23 22 21 21 20 20 19 18 17 16 16 15 15 14 14 14 14 14 14 14 14 14 14 15 15 15 14 14 14 14
24 22 19 17 19 19 19 21 21 21 21 22 22 23 23 23 23 23 23 22 22 21 21 20 20 19 18 17 16 15 15 14 14 14 14 13 13 13 14 14 14 14 14 14 14 14 14 14 14
24 22 18 19 19 18 19 20 20 21 21 21 21 23 23 23 23 23 23 22 22 21 21 20 20 19 17 16 15 15 14 14 13 13 13 13 12 13 13 13 13 13 13 14 14 14 14 14 14
23 23 20 17 16 17 17 18 20 20 21 21 21 22 23 22 22 22 22 22 22 21 21 20 20 18 17 16 15 14 14 13 13 13 12 12 12 12 12 12 13 13 13 13 13 14 14 13 13
23 22 19 18 18 17 16 18 20 19 19 20 20 21 21 21 21 21 21 21 21 21 21 20 19 18 17 16 15 14 14 13 13 12 12 12 12 12 12 12 12 12 13 13 13 13 13 13 13
Wind_Speed
3 4 2 0 2 5 5 5 2 7 6 7 11 11 8 5 4 5 5 18 21 18 19 25 26 25 23 21 19 17 16 15 14 13 13 13 12 12 11 11 11 10 10 9 9 8 9 9 8
3 2 1 2 5 4 3 3 1 5 8 11 10 9 7 6 8 10 7 18 22 19 19 21 25 25 24 22 20 18 17 16 15 13 13 12 11 10 10 10 10 9 9 8 8 8 7 7 6
2 1 3 4 2 4 5 4 2 4 8 8 7 7 5 6 11 8 12 21 19 16 19 22 25 24 23 22 21 20 18 17 15 14 12 11 10 10 10 9 9 8 8 8 7 7 7 7 6
1 3 4 4 3 5 5 5 3 3 8 8 9 6 4 2 7 13 21 22 20 15 18 22 24 23 23 22 21 20 18 17 16 14 13 11 10 10 9 9 9 9 8 7 7 7 6 7 7
3 4 5 2 5 5 6 7 6 2 5 9 11 6 4 5 19 24 22 21 20 14 15 21 23 23 23 23 21 20 18 17 16 15 13 12 11 10 10 9 9 9 9 8 8 8 8 8 8
3 4 4 3 3 4 5 6 5 6 9 11 11 7 4 11 20 21 21 19 19 18 14 19 22 21 21 22 21 20 19 18 16 15 13 12 12 11 11 11 11 10 10 10 10 11 11 11 11
3 2 2 6 4 2 2 4 7 6 8 9 11 8 6 11 18 19 18 17 17 16 14 13 19 20 21 22 22 21 20 19 17 16 15 14 13 13 14 14 13 13 12 12 12 13 13 14 14
5 3 4 6 5 4 4 2 3 8 7 10 9 11 9 13 19 17 16 15 15 14 13 10 13 15 16 18 21 21 20 20 19 18 17 16 15 15 15 15 15 15 15 16 16 17 17 17 17
2 4 3 4 6 7 7 7 6 2 6 5 5 7 12 20 22 17 15 12 11 12 10 9 9 11 12 13 17 18 19 19 18 17 17 16 14 15 15 16 17 18 19 20 20 20 20 19 18
4 3 7 5 4 5 8 7 7 5 7 6 9 11 18 18 20 18 18 17 14 13 11 10 9 8 10 13 13 12 13 13 14 13 14 13 13 14 15 16 20 21 22 22 22 22 20 19 14
5 7 7 8 5 4 7 9 5 6 5 8 15 19 18 17 15 15 16 17 16 14 13 12 11 9 9 7 8 9 10 10 12 13 15 14 13 12 14 12 15 18 21 19 18 19 17 15 12
5 9 9 7 6 5 5 6 4 4 8 13 21 22 19 18 15 14 15 15 15 15 14 14 13 11 9 8 7 9 8 8 10 14 16 13 8 7 9 9 11 12 14 12 13 10 13 14 15
7 10 10 8 8 6 5 7 6 2 8 15 18 17 17 16 13 10 11 13 14 14 14 15 14 14 11 8 7 8 9 9 13 15 17 16 9 9 7 7 8 10 12 10 7 8 9 10 12
6 6 6 6 7 5 5 8 5 3 16 16 13 9 10 11 10 8 9 10 12 13 12 13 16 15 12 10 9 8 8 10 11 12 16 18 14 9 10 10 7 7 10 11 9 9 11 11 10
7 8 11 9 7 6 5 9 3 9 20 18 14 12 11 8 7 7 8 9 10 9 9 10 13 12 11 10 9 5 6 7 5 7 13 15 15 12 8 9 9 8 11 11 9 8 7 9 9
7 6 7 11 7 9 4 5 2 15 21 17 15 14 13 10 10 8 7 7 6 6 5 6 7 7 7 6 4 2 3 4 4 6 8 11 12 13 8 9 10 9 9 6 7 6 6 7 7
6 5 10 13 9 8 7 6 6 12 18 15 13 13 13 10 9 9 9 8 7 6 6 6 6 4 2 1 2 3 4 4 5 7 8 11 14 14 8 10 10 9 8 8 8 7 6 7 7
6 7 7 8 9 3 7 7 7 7 13 13 12 11 10 10 8 7 7 7 7 6 6 5 5 5 5 2 1 2 3 4 4 4 7 10 11 12 8 9 11 10 9 9 8 8 7 6 7
7 4 5 6 9 8 6 2 2 4 7 10 10 10 10 9 6 6 6 6 5 5 4 3 3 3 3 2 2 2 3 4 5 6 7 9 10 10 7 8 8 8 9 11 10 8 8 8 6
5 4 3 5 9 8 8 7 7 5 2 8 12 12 11 8 5 5 5 4 3 3 3 4 4 4 4 4 4 4 4 5 5 6 6 8 9 9 8 7 7 7 8 9 9 8 6 6 5
7 3 2 2 4 5 5 7 7 7 6 7 11 10 10 10 10 8 7 5 5 5 7 7 8 8 7 7 4 2 2 3 4 6 7 8 7 8 7 8 8 7 7 8 9 8 9 8 6
4 3 6 8 7 4 3 3 7 3 7 7 8 9 9 9 8 8 8 8 9 9 9 9 9 8 7 6 4 4 4 5 6 6 7 9 9 9 8 9 8 8 7 8 8 8 7 8 7
1 3 6 6 6 6 5 0 6 1 4 5 7 8 9 9 10 11 11 12 11 10 9 8 7 5 4 3 3 3 4 5 5 7 9 10 10 10 10 9 8 8 8 8 9 7 7 7 7
3 8 9 7 5 2 5 3 6 4 6 6 5 7 9 10 11 11 12 10 9 7 6 5 5 3 2 2 1 1 3 5 7 9 9 10 9 9 10 10 9 8 7 8 8 7 7 6 6
7 7 5 7 6 5 4 1 6 7 5 8 9 11 11 11 10 10 10 9 8 6 5 4 5 4 2 3 2 2 2 4 6 8 9 11 10 9 10 9 8 7 7 6 6 6 6 6 5
2 8 6 3 4 6 4 1 6 6 7 10 10 11 11 11 9 9 9 8 7 7 7 6 6 5 4 3 2 1 2 3 5 7 8 9 9 9 9 8 7 6 5 5 5 5 6 5 6
3 2 9 7 2 3 4 2 4 6 6 8 9 9 10 10 8 6 6 8 8 8 8 8 8 6 5 5 3 1 1 3 5 7 7 7 7 7 6 4 3 4 4 4 4 5 6 5 5
3 6 6 4 1 4 6 4 4 7 7 7 8 8 7 6 5 6 7 8 8 8 7 8 8 8 7 6 5 3 1 2 4 5 7 7 6 5 5 5 4 3 3 3 4 4 5 5 4
3 2 4 4 5 5 5 7 8 10 8 7 6 5 3 2 2 4 6 8 8 7 8 8 8 7 6 6 5 4 2 1 2 4 5 6 5 5 6 6 5 5 4 2 1 1 2 4 3
3 3 6 3 6 6 4 9 9 2 2 5 7 7 7 7 6 5 5 7 7 8 8 9 8 8 8 7 6 6 4 3 2 3 4 5 5 6 6 6 6 6 5 3 2 3 4 6 7
Wind_Direction
291 237 185 246 45 44 352 322 68 77 68 75 85 86 85 70 121 145 121 138 138 145 154 154 156 155 152 148 145 143 141 140 139 137 134 133 132 132 131 131 132 132 130 127 124 121 117 116 115
324 272 87 19 65 61 305 285 81 114 118 109 92 89 83 80 98 112 121 141 140 145 150 155 157 157 153 150 149 150 151 151 152 152 150 147 147 146 146 144 143 145 146 145 144 141 138 138 139
272 242 73 57 76 177 227 254 219 117 130 119 87 61 70 112 119 126 141 139 137 144 149 155 159 161 156 154 154 157 159 161 162 163 163 162 162 164 164 162 159 159 162 165 166 164 163 165 170
5 58 54 73 224 234 216 225 229 116 100 99 97 67 33 58 124 135 139 141 141 145 150 155 160 165 162 160 161 163 165 167 169 171 173 174 176 179 179 178 177 177 179 184 186 186 189 195 196
85 69 46 347 246 224 227 215 208 130 100 103 97 86 32 28 117 133 142 146 146 147 154 156 160 165 166 166 166 168 171 173 175 178 180 182 185 190 193 194 196 197 200 203 207 210 210 216 222
26 56 44 305 268 219 197 192 146 111 108 114 107 105 79 120 128 141 146 152 151 152 157 159 162 165 168 168 171 173 176 178 182 185 189 192 197 201 202 206 210 214 218 221 225 223 219 222 227
116 65 281 281 283 206 195 167 161 144 132 139 127 110 123 144 146 149 150 151 151 154 159 161 165 168 171 172 175 178 180 182 187 192 197 201 206 209 211 213 217 221 226 229 232 227 225 226 228
146 86 324 311 357 4 345 33 180 151 144 128 126 135 160 166 152 153 149 149 149 157 164 165 168 170 174 177 180 182 186 188 192 197 201 205 208 212 215 218 222 227 230 232 232 230 230 230 232
100 73 285 281 337 325 342 11 341 71 103 92 110 144 156 150 147 149 144 146 151 160 168 169 170 171 174 180 188 190 195 199 201 205 209 211 215 218 221 224 226 231 233 235 235 235 236 236 238
108 160 234 237 286 311 337 359 356 61 83 76 80 102 133 144 148 153 156 161 165 168 175 176 177 173 173 186 192 197 202 207 209 212 216 217 222 227 231 234 236 237 238 240 241 242 244 245 244
189 213 245 270 278 314 334 335 12 107 116 149 140 140 147 150 155 158 164 167 173 173 175 179 181 179 181 192 185 194 207 211 215 216 218 221 228 236 240 241 243 243 243 242 244 244 244 245 244
258 264 268 268 291 312 294 308 343 138 179 163 150 150 154 162 169 169 167 170 170 174 181 180 182 184 191 195 192 196 207 212 216 222 223 222 228 236 240 241 241 238 237 234 235 237 239 243 247
268 268 277 279 312 299 297 290 282 181 142 142 144 150 160 167 173 176 165 166 167 178 184 183 185 189 193 194 196 201 210 215 218 220 224 223 223 231 235 240 240 238 233 227 226 230 236 240 243
271 283 303 307 315 304 306 305 306 119 126 128 129 133 154 167 167 164 158 159 170 179 181 179 186 192 193 194 194 201 210 220 225 226 226 224 227 231 234 238 236 233 230 228 225 225 233 238 240
312 319 322 305 298 288 343 320 285 138 127 125 123 116 106 110 123 145 162 163 167 168 166 171 184 191 196 202 203 201 213 221 225 232 234 231 229 232 236 240 243 238 230 223 223 226 228 235 237
349 355 311 286 262 261 175 247 191 137 132 134 136 128 112 100 95 98 112 128 143 137 135 155 172 185 209 221 234 256 274 280 274 273 270 262 250 242 239 246 250 243 233 223 221 218 220 229 231
4 320 286 290 273 231 163 186 171 147 139 145 146 139 127 114 99 92 94 101 103 102 97 95 90 91 66 345 322 307 300 287 280 279 274 271 269 264 246 250 251 244 237 232 233 226 216 227 234
267 277 290 305 328 92 128 147 163 165 149 154 150 139 127 119 119 112 104 106 109 109 107 113 132 149 152 155 218 262 277 274 272 271 270 271 269 266 252 249 246 240 239 239 234 231 227 227 233
239 284 324 337 356 41 52 84 171 182 159 157 153 142 133 131 137 128 125 124 121 126 139 163 177 183 170 175 205 240 260 266 273 269 270 276 277 273 259 257 252 242 239 240 237 234 238 241 229
319 343 360 355 5 27 10 350 346 351 265 179 160 147 139 137 146 155 154 144 144 166 186 197 206 210 198 193 201 210 229 254 262 273 282 280 280 277 277 265 260 251 245 246 240 231 237 244 220
341 31 42 12 13 28 34 342 336 338 36 106 135 143 150 163 175 184 185 189 182 192 199 199 204 206 207 206 202 228 267 287 289 291 288 283 280 278 272 266 259 253 243 245 243 234 233 243 241
324 7 32 12 18 320 57 304 302 342 65 101 134 154 172 181 184 188 191 198 202 203 196 190 192 197 207 203 202 225 247 266 270 276 280 286 283 279 271 263 254 248 241 241 244 238 231 231 242
259 35 19 344 333 328 335 42 282 15 140 165 162 172 186 188 188 194 200 205 209 203 193 189 186 197 204 190 197 229 263 273 286 292 291 291 289 280 273 263 253 245 238 235 237 236 229 224 226
54 29 2 17 51 340 274 200 281 250 206 185 191 198 203 199 201 206 212 212 213 202 186 178 172 185 172 132 109 75 310 309 312 309 303 298 293 287 276 266 253 243 237 236 235 229 219 214 206
62 66 19 356 6 273 269 143 271 272 193 180 198 212 218 218 215 218 221 219 212 197 191 181 173 178 150 113 85 50 346 323 309 306 304 301 297 290 280 270 254 241 233 230 222 215 216 208 204
172 130 148 211 255 285 330 174 255 262 189 193 203 212 222 229 229 229 224 206 195 190 189 183 181 181 170 151 138 71 349 321 306 303 302 298 294 288 282 272 254 241 232 227 222 224 224 214 209
164 168 168 148 264 300 303 241 268 276 240 213 213 217 224 226 220 209 190 181 182 187 191 189 186 189 188 179 171 167 308 312 311 312 308 305 305 306 307 293 273 263 249 235 226 232 229 209 201
163 157 89 99 200 276 294 296 238 240 241 225 211 204 207 198 180 172 179 184 188 191 193 191 191 197 197 189 183 172 191 290 308 317 321 319 322 337 356 4 355 327 292 263 238 235 225 195 186
312 240 138 145 170 177 263 272 238 222 215 210 209 188 163 143 178 222 215 203 197 193 193 198 205 206 201 199 191 177 190 234 297 318 324 325 338 352 3 3 2 350 330 309 270 221 173 146 124
199 189 150 168 247 201 214 271 297 290 37 68 64 59 44 24 355 317 262 221 208 205 205 208 211 210 210 203 193 190 192 203 254 287 305 320 338 347 354 359 358 350 350 355 29 85 97 108 110
Height
1517 1515 1515 1515 1516 1522 1523 1511 1499 1496 1496 1497 1497 1499 1504 1507 1511 1519 1516 1518 1522 1525 1529 1532 1534 1537 1539 1542 1543 1545 1546 1548 1549 1550 1551 1552 1552 1553 1553 1553 1553 1554 1554 1555 1555 1556 1556 1556 1557
1518 1516 1516 1515 1521 1535 1526 1508 1501 1496 1497 1498 1500 1502 1505 1508 1509 1511 1514 1520 1523 1526 1529 1532 1535 1537 1540 1542 1544 1545 1547 1548 1549 1550 1551 1552 1552 1553 1553 1553 1553 1554 1554 1555 1555 1555 1556 1556 1556
1518 1517 1518 1518 1526 1531 1523 1506 1499 1496 1497 1497 1502 1505 1507 1510 1510 1512 1515 1519 1523 1526 1529 1532 1535 1538 1540 1542 1543 1545 1546 1547 1549 1550 1551 1552 1552 1552 1553 1553 1553 1554 1554 1554 1554 1555 1555 1555 1556
1518 1519 1520 1525 1527 1516 1510 1502 1498 1496 1497 1499 1502 1508 1510 1512 1511 1513 1516 1520 1523 1526 1529 1532 1534 1537 1539 1541 1543 1545 1546 1547 1548 1550 1551 1551 1551 1552 1552 1553 1553 1553 1554 1554 1554 1554 1554 1555 1555
1517 1518 1524 1530 1521 1508 1502 1499 1498 1496 1497 1501 1503 1510 1512 1512 1512 1514 1517 1521 1523 1525 1528 1531 1533 1536 1538 1540 1542 1544 1545 1547 1548 1549 1550 1550 1551 1551 1551 1552 1553 1553 1553 1553 1553 1554 1554 1554 1554
1519 1519 1532 1534 1518 1504 1500 1499 1496 1497 1499 1502 1504 1510 1515 1513 1513 1516 1519 1522 1524 1525 1528 1530 1533 1535 1537 1539 1541 1543 1544 1545 1547 1548 1549 1549 1550 1550 1551 1551 1551 1552 1552 1552 1552 1553 1553 1553 1553
1520 1523 1529 1524 1516 1505 1499 1497 1496 1496 1496 1499 1501 1509 1515 1516 1515 1517 1520 1523 1525 1526 1528 1530 1532 1534 1536 1538 1539 1541 1542 1544 1545 1546 1547 1548 1548 1549 1549 1550 1550 1551 1551 1551 1551 1551 1551 1551 1551
1518 1522 1526 1523 1513 1505 1496 1495 1494 1494 1495 1498 1499 1505 1512 1515 1515 1518 1521 1524 1525 1527 1528 1530 1532 1533 1535 1536 1538 1539 1540 1542 1543 1544 1545 1545 1546 1547 1547 1548 1548 1549 1549 1549 1549 1549 1549 1549 1548
1517 1526 1531 1521 1514 1506 1497 1495 1495 1493 1494 1496 1498 1500 1504 1511 1515 1517 1519 1522 1524 1526 1528 1530 1532 1533 1534 1536 1537 1539 1540 1541 1542 1543 1543 1544 1544 1545 1545 1546 1546 1546 1546 1547 1547 1546 1546 1546 1545
1516 1527 1520 1511 1508 1504 1498 1496 1496 1496 1496 1498 1500 1502 1506 1511 1514 1515 1517 1519 1522 1525 1527 1529 1531 1532 1533 1535 1536 1537 1538 1540 1541 1542 1542 1543 1543 1543 1543 1543 1543 1543 1543 1544 1543 1543 1543 1542 1542
1512 1515 1509 1505 1504 1502 1498 1496 1497 1497 1499 1498 1499 1503 1507 1511 1514 1515 1516 1518 1521 1525 1527 1529 1531 1532 1533 1534 1535 1536 1538 1539 1540 1540 1541 1541 1541 1541 1541 1540 1540 1540 1540 1540 1540 1540 1539 1539 1539
1510 1506 1504 1502 1501 1500 1498 1496 1496 1496 1497 1497 1498 1500 1505 1510 1512 1515 1516 1518 1521 1524 1526 1529 1530 1532 1533 1534 1535 1536 1537 1537 1538 1538 1539 1539 1539 1539 1538 1538 1538 1537 1537 1537 1538 1538 1537 1537 1537
1508 1504 1501 1499 1498 1498 1497 1496 1495 1496 1497 1499 1501 1504 1506 1508 1511 1515 1517 1519 1521 1523 1525 1526 1528 1530 1532 1532 1533 1534 1535 1535 1536 1537 1537 1536 1536 1536 1536 1536 1535 1535 1534 1534 1535 1535 1535 1534 1534
1505 1501 1498 1496 1496 1496 1496 1495 1495 1496 1497 1502 1505 1506 1508 1510 1512 1514 1517 1519 1521 1522 1523 1524 1526 1528 1529 1530 1531 1531 1532 1533 1533 1533 1533 1533 1533 1533 1533 1532 1532 1531 1531 1531 1531 1531 1531 1530 1530
1503 1501 1498 1494 1494 1494 1496 1499 1495 1495 1497 1502 1505 1507 1508 1510 1512 1514 1516 1518 1520 1522 1523 1524 1525 1527 1528 1529 1530 1530 1531 1531 1530 1530 1529 1529 1529 1528 1528 1528 1527 1527 1526 1526 1526 1526 1526 1525 1525
1504 1508 1512 1498 1492 1490 1500 1509 1496 1494 1496 1501 1504 1506 1507 1509 1511 1512 1515 1517 1520 1522 1523 1524 1525 1526 1527 1528 1528 1528 1528 1528 1527 1527 1526 1525 1524 1523 1523 1522 1520 1521 1521 1521 1521 1520 1520 1519 1519
1517 1522 1517 1501 1486 1487 1495 1503 1498 1496 1496 1500 1503 1505 1506 1508 1510 1512 1513 1516 1518 1520 1522 1523 1524 1524 1525 1525 1525 1525 1524 1523 1523 1522 1521 1519 1519 1518 1517 1515 1514 1514 1515 1514 1515 1514 1514 1514 1513
1527 1522 1515 1508 1491 1487 1495 1498 1496 1496 1496 1498 1501 1503 1505 1507 1509 1511 1513 1515 1517 1519 1520 1521 1522 1523 1523 1522 1522 1521 1520 1519 1518 1516 1515 1514 1512 1511 1510 1509 1508 1508 1508 1507 1508 1508 1507 1508 1508
1511 1513 1514 1505 1495 1495 1499 1499 1497 1496 1496 1498 1500 1502 1504 1506 1509 1511 1512 1513 1516 1518 1519 1520 1520 1520 1520 1519 1518 1517 1515 1513 1512 1511 1509 1508 1506 1505 1504 1503 1502 1501 1501 1501 1501 1501 1501 1501 1502
1506 1512 1513 1506 1498 1499 1503 1502 1498 1497 1496 1497 1499 1501 1503 1506 1509 1510 1512 1513 1515 1516 1517 1517 1517 1517 1516 1515 1514 1512 1510 1507 1506 1504 1502 1500 1499 1497 1496 1495 1494 1494 1494 1493 1494 1494 1494 1494 1495
1508 1512 1512 1511 1506 1504 1507 1514 1507 1500 1496 1497 1500 1503 1505 1507 1508 1510 1511 1512 1513 1513 1514 1513 1513 1512 1511 1510 1509 1507 1504 1502 1500 1498 1495 1494 1492 1490 1488 1487 1487 1486 1486 1485 1485 1486 1487 1487 1487
1514 1505 1504 1506 1515 1523 1516 1533 1516 1505 1502 1500 1502 1504 1505 1507 1508 1509 1509 1510 1510 1509 1509 1509 1508 1508 1506 1505 1503 1501 1499 1496 1494 1491 1489 1487 1485 1483 1481 1480 1479 1478 1478 1477 1478 1478 1478 1479 1479
1506 1500 1503 1506 1513 1521 1517 1528 1522 1507 1508 1504 1503 1504 1505 1505 1506 1506 1506 1506 1505 1505 1505 1505 1504 1503 1502 1500 1498 1496 1494 1491 1488 1486 1483 1480 1478 1476 1474 1472 1471 1470 1470 1470 1470 1470 1470 1471 1472
1500 1504 1509 1515 1524 1537 1523 1528 1527 1514 1507 1505 1504 1504 1503 1503 1503 1503 1502 1502 1502 1503 1503 1502 1502 1500 1499 1497 1494 1492 1489 1486 1483 1480 1476 1473 1470 1467 1465 1464 1463 1463 1463 1463 1463 1463 1463 1464 1465
1505 1526 1545 1545 1549 1543 1522 1526 1527 1506 1500 1500 1500 1500 1500 1500 1500 1499 1500 1500 1500 1501 1501 1500 1499 1497 1495 1493 1491 1489 1486 1483 1479 1475 1471 1467 1463 1460 1458 1457 1456 1456 1456 1457 1457 1457 1457 1458 1459
1507 1522 1547 1555 1556 1545 1527 1528 1518 1501 1496 1496 1496 1496 1497 1497 1497 1497 1497 1497 1498 1498 1498 1498 1496 1494 1492 1490 1488 1485 1482 1479 1476 1471 1467 1462 1458 1454 1452 1451 1451 1451 1451 1451 1451 1452 1452 1454 1455
1508 1516 1521 1539 1538 1543 1534 1520 1509 1501 1498 1495 1494 1494 1494 1494 1494 1494 1494 1494 1495 1495 1495 1494 1493 1490 1488 1486 1484 1481 1479 1476 1472 1468 1463 1459 1454 1451 1449 1448 1447 1447 1447 1447 1447 1447 1448 1450 1451
1502 1509 1525 1535 1546 1552 1539 1528 1521 1504 1499 1495 1492 1492 1491 1491 1492 1492 1492 1492 1493 1492 1492 1491 1490 1487 1485 1483 1480 1478 1476 1473 1470 1466 1461 1457 1453 1449 1447 1446 1445 1445 1445 1445 1444 1444 1445 1446 1448
1508 1510 1518 1532 1539 1549 1551 1537 1503 1498 1493 1491 1490 1490 1492 1493 1493 1493 1492 1491 1490 1489 1489 1488 1486 1484 1482 1480 1477 1475 1473 1470 1467 1464 1460 1456 1453 1450 1448 1446 1445 1444 1443 1443 1443 1443 1443 1444 1446
1504 1508 1519 1533 1534 1535 1541 1530 1495 1492 1492 1492 1493 1495 1496 1496 1495 1493 1491 1489 1487 1486 1485 1484 1483 1480 1478 1476 1474 1472 1470 1468 1465 1463 1460 1457 1454 1452 1449 1447 1446 1444 1443 1442 1442 1442 1442 1443 1445